Time,TemperatureF,DewpointF,PressureIn,WindDirection,WindDirectionDegrees,WindSpeedMPH,WindSpeedGustMPH,Humidity,HourlyPrecipIn,Conditions,Clouds,dailyrainin,SoftwareType,DateUTC
2013-05-22 00:03:00,77.0,70.0,29.82,ESE,110,6.0,-999.0,78,-99.99,,,-99.99,,2013-05-22 04:03:00,
2013-05-22 00:13:00,77.0,70.0,29.82,ESE,120,7.0,-999.0,78,-99.99,,,-99.99,,2013-05-22 04:13:00,
2013-05-22 00:23:00,75.0,70.0,29.82,SE,130,7.0,-999.0,83,-99.99,,,-99.99,,2013-05-22 04:23:00,
2013-05-22 00:33:00,75.0,70.0,29.83,SE,130,7.0,-999.0,83,-99.99,,,-99.99,,2013-05-22 04:33:00,
2013-05-22 00:43:00,75.0,68.0,29.83,SSE,150,8.0,-999.0,78,-99.99,,,-99.99,,2013-05-22 04:43:00,
2013-05-22 00:53:00,75.0,68.0,29.83,SSE,160,6.0,-999.0,78,-99.99,,,-99.99,,2013-05-22 04:53:00,
2013-05-22 01:02:00,75.0,68.0,29.83,SSE,150,7.0,-999.0,78,-99.99,,,-99.99,,2013-05-22 05:02:00,
2013-05-22 01:12:00,75.0,68.0,29.84,SSE,160,5.0,-999.0,78,-99.99,,,-99.99,,2013-05-22 05:12:00,
2013-05-22 01:21:00,73.0,68.0,29.83,SSE,150,7.0,-999.0,83,-99.99,,,-99.99,,2013-05-22 05:21:00,
2013-05-22 01:32:00,73.0,68.0,29.85,North,0,0.0,-999.0,83,-99.99,,,-99.99,,2013-05-22 05:32:00,
2013-05-22 01:42:00,73.0,66.0,29.87,North,350,9.0,-999.0,78,-99.99,,,-99.99,,2013-05-22 05:42:00,
2013-05-22 01:51:00,73.0,66.0,29.91,North,10,14.0,25.0,78,-99.99,,,-99.99,,2013-05-22 05:51:00,
2013-05-22 02:01:00,72.0,66.0,29.90,NNE,20,10.0,25.0,83,-99.99,,,-99.99,,2013-05-22 06:01:00,
2013-05-22 02:12:00,70.0,66.0,29.90,East,90,14.0,17.0,88,-99.99,,,-99.99,,2013-05-22 06:12:00,
2013-05-22 02:21:00,68.0,66.0,29.87,East,90,8.0,-999.0,93,-99.99,,,-99.99,,2013-05-22 06:21:00,
2013-05-22 02:32:00,68.0,66.0,29.87,East,90,6.0,-999.0,93,-99.99,,,-99.99,,2013-05-22 06:32:00,
2013-05-22 02:42:00,68.0,66.0,29.87,ESE,120,5.0,-999.0,93,-99.99,,,-99.99,,2013-05-22 06:42:00,
2013-05-22 02:52:00,68.0,66.0,29.88,SSE,150,3.0,-999.0,93,-99.99,,,-99.99,,2013-05-22 06:52:00,
2013-05-22 03:01:00,68.0,66.0,29.88,SE,130,3.0,-999.0,93,-99.99,,,-99.99,,2013-05-22 07:01:00,
2013-05-22 03:11:00,68.0,66.0,29.89,South,170,8.0,-999.0,93,-99.99,,,-99.99,,2013-05-22 07:11:00,
2013-05-22 03:21:00,68.0,66.0,29.87,SE,140,6.0,-999.0,93,-99.99,,,-99.99,,2013-05-22 07:21:00,
2013-05-22 03:32:00,66.0,66.0,29.87,SE,140,6.0,-999.0,100,-99.99,,,-99.99,,2013-05-22 07:32:00,
2013-05-22 03:42:00,66.0,64.0,29.87,SE,130,5.0,-999.0,93,-99.99,,,-99.99,,2013-05-22 07:42:00,
2013-05-22 03:52:00,66.0,64.0,29.85,SSE,150,6.0,-999.0,93,-99.99,,,-99.99,,2013-05-22 07:52:00,
2013-05-22 04:02:00,66.0,64.0,29.85,SE,140,7.0,-999.0,93,-99.99,,,-99.99,,2013-05-22 08:02:00,
2013-05-22 04:11:00,66.0,64.0,29.85,SE,140,6.0,-999.0,93,-99.99,,,-99.99,,2013-05-22 08:11:00,
2013-05-22 04:22:00,66.0,64.0,29.86,SE,140,6.0,-999.0,93,-99.99,,,-99.99,,2013-05-22 08:22:00,
2013-05-22 04:32:00,66.0,64.0,29.87,SSW,200,5.0,-999.0,93,-99.99,,,-99.99,,2013-05-22 08:32:00,
2013-05-22 04:42:00,66.0,64.0,29.87,North,0,0.0,-999.0,93,-99.99,,,-99.99,,2013-05-22 08:42:00,
2013-05-22 04:52:00,66.0,64.0,29.88,North,0,0.0,-999.0,93,-99.99,,,-99.99,,2013-05-22 08:52:00,
2013-05-22 05:01:00,66.0,64.0,29.88,North,0,0.0,-999.0,93,-99.99,,,-99.99,,2013-05-22 09:01:00,
2013-05-22 05:12:00,66.0,64.0,29.88,North,0,0.0,-999.0,93,-99.99,,,-99.99,,2013-05-22 09:12:00,
2013-05-22 05:22:00,66.0,64.0,29.89,North,0,0.0,-999.0,93,-99.99,,,-99.99,,2013-05-22 09:22:00,
2013-05-22 05:33:00,66.0,64.0,29.90,North,0,0.0,-999.0,93,-99.99,,,-99.99,,2013-05-22 09:33:00,
2013-05-22 05:42:00,66.0,64.0,29.89,SE,130,3.0,-999.0,93,-99.99,,,-99.99,,2013-05-22 09:42:00,
2013-05-22 05:53:00,66.0,64.0,29.89,North,0,0.0,-999.0,93,-99.99,,,-99.99,,2013-05-22 09:53:00,
2013-05-22 06:03:00,66.0,64.0,29.89,North,0,0.0,-999.0,93,-99.99,,,-99.99,,2013-05-22 10:03:00,
2013-05-22 06:12:00,66.0,64.0,29.88,North,0,0.0,-999.0,93,-99.99,,,-99.99,,2013-05-22 10:12:00,
2013-05-22 06:23:00,66.0,64.0,29.88,SSW,210,5.0,-999.0,93,-99.99,,,-99.99,,2013-05-22 10:23:00,
2013-05-22 06:33:00,66.0,64.0,29.88,South,190,5.0,-999.0,93,-99.99,,,-99.99,,2013-05-22 10:33:00,
2013-05-22 06:42:00,66.0,64.0,29.88,SSW,200,3.0,-999.0,93,-99.99,,,-99.99,,2013-05-22 10:42:00,
2013-05-22 06:52:00,66.0,66.0,29.89,North,0,0.0,-999.0,100,-99.99,,,-99.99,,2013-05-22 10:52:00,
2013-05-22 07:02:00,66.0,66.0,29.89,North,0,0.0,-999.0,100,-99.99,,,-99.99,,2013-05-22 11:02:00,
2013-05-22 07:11:00,68.0,66.0,29.89,SSW,210,7.0,-999.0,93,-99.99,,,-99.99,,2013-05-22 11:11:00,
2013-05-22 07:22:00,70.0,66.0,29.89,SSW,210,6.0,-999.0,88,-99.99,,,-99.99,,2013-05-22 11:22:00,
2013-05-22 07:32:00,68.0,66.0,29.89,SSW,200,7.0,-999.0,93,-99.99,,,-99.99,,2013-05-22 11:32:00,
2013-05-22 07:42:00,68.0,66.0,29.89,SSW,200,7.0,-999.0,93,-99.99,,,-99.99,,2013-05-22 11:42:00,
2013-05-22 07:52:00,70.0,64.0,29.90,SSW,200,10.0,-999.0,82,-99.99,,,-99.99,,2013-05-22 11:52:00,
2013-05-22 08:02:00,70.0,66.0,29.90,SSW,200,10.0,-999.0,88,-99.99,,,-99.99,,2013-05-22 12:02:00,
2013-05-22 08:12:00,70.0,66.0,29.89,SSW,210,10.0,-999.0,88,-99.99,,,-99.99,,2013-05-22 12:12:00,
2013-05-22 08:22:00,70.0,64.0,29.89,SSW,200,10.0,-999.0,82,-99.99,,,-99.99,,2013-05-22 12:22:00,
2013-05-22 08:32:00,70.0,64.0,29.89,SSW,200,10.0,-999.0,82,-99.99,,,-99.99,,2013-05-22 12:32:00,
2013-05-22 08:42:00,70.0,66.0,29.89,SSW,200,10.0,-999.0,88,-99.99,,,-99.99,,2013-05-22 12:42:00,
2013-05-22 08:52:00,72.0,66.0,29.89,SSW,200,10.0,-999.0,83,-99.99,,,-99.99,,2013-05-22 12:52:00,
2013-05-22 09:02:00,72.0,66.0,29.89,SSW,200,13.0,-999.0,83,-99.99,,,-99.99,,2013-05-22 13:02:00,
2013-05-22 09:12:00,72.0,64.0,29.90,SSW,210,12.0,-999.0,78,-99.99,,,-99.99,,2013-05-22 13:12:00,
2013-05-22 09:22:00,72.0,66.0,29.90,South,190,10.0,-999.0,83,-99.99,,,-99.99,,2013-05-22 13:22:00,
2013-05-22 09:32:00,72.0,66.0,29.89,SSW,210,9.0,-999.0,83,-99.99,,,-99.99,,2013-05-22 13:32:00,
2013-05-22 09:42:00,72.0,66.0,29.89,SSW,200,12.0,-999.0,83,-99.99,,,-99.99,,2013-05-22 13:42:00,
2013-05-22 09:52:00,72.0,66.0,29.89,South,190,13.0,-999.0,83,-99.99,,,-99.99,,2013-05-22 13:52:00,
2013-05-22 10:02:00,72.0,66.0,29.89,South,190,10.0,-999.0,83,-99.99,,,-99.99,,2013-05-22 14:02:00,
2013-05-22 10:11:00,73.0,66.0,29.89,South,190,13.0,16.0,78,-99.99,,,-99.99,,2013-05-22 14:11:00,
2013-05-22 10:21:00,73.0,66.0,29.89,SSW,210,13.0,17.0,78,-99.99,,,-99.99,,2013-05-22 14:21:00,
2013-05-22 10:32:00,73.0,66.0,29.89,South,190,13.0,-999.0,78,-99.99,,,-99.99,,2013-05-22 14:32:00,
2013-05-22 10:42:00,73.0,66.0,29.89,SSW,200,9.0,-999.0,78,-99.99,,,-99.99,,2013-05-22 14:42:00,
2013-05-22 10:52:00,75.0,68.0,29.89,South,180,8.0,-999.0,78,-99.99,,,-99.99,,2013-05-22 14:52:00,
2013-05-22 11:01:00,75.0,68.0,29.89,SSW,200,10.0,-999.0,78,-99.99,,,-99.99,,2013-05-22 15:01:00,
2013-05-22 11:11:00,75.0,70.0,29.89,South,180,8.0,-999.0,83,-99.99,,,-99.99,,2013-05-22 15:11:00,
2013-05-22 11:22:00,75.0,70.0,29.89,South,170,9.0,-999.0,83,-99.99,,,-99.99,,2013-05-22 15:22:00,
2013-05-22 11:32:00,77.0,70.0,29.89,SSW,200,12.0,18.0,78,-99.99,,,-99.99,,2013-05-22 15:32:00,
2013-05-22 11:42:00,77.0,70.0,29.89,SSW,200,13.0,18.0,78,-99.99,,,-99.99,,2013-05-22 15:42:00,
2013-05-22 11:53:00,77.0,70.0,29.88,SSW,200,14.0,18.0,78,-99.99,,,-99.99,,2013-05-22 15:53:00,
2013-05-22 12:03:00,77.0,70.0,29.88,South,190,12.0,18.0,78,-99.99,,,-99.99,,2013-05-22 16:03:00,
2013-05-22 12:12:00,79.0,70.0,29.88,South,190,12.0,-999.0,73,-99.99,,,-99.99,,2013-05-22 16:12:00,
2013-05-22 12:23:00,79.0,70.0,29.88,South,190,12.0,-999.0,73,-99.99,,,-99.99,,2013-05-22 16:23:00,
2013-05-22 12:33:00,79.0,70.0,29.88,South,190,13.0,18.0,73,-99.99,,,-99.99,,2013-05-22 16:33:00,
2013-05-22 12:42:00,79.0,70.0,29.88,SSW,200,15.0,18.0,73,-99.99,,,-99.99,,2013-05-22 16:42:00,
2013-05-22 12:52:00,79.0,70.0,29.87,South,180,10.0,-999.0,73,-99.99,,,-99.99,,2013-05-22 16:52:00,
2013-05-22 13:02:00,79.0,70.0,29.87,South,190,10.0,-999.0,73,-99.99,,,-99.99,,2013-05-22 17:02:00,
2013-05-22 13:12:00,79.0,70.0,29.87,South,190,9.0,16.0,73,-99.99,,,-99.99,,2013-05-22 17:12:00,
2013-05-22 13:23:00,79.0,70.0,29.87,South,180,10.0,-999.0,73,-99.99,,,-99.99,,2013-05-22 17:23:00,
2013-05-22 13:33:00,79.0,70.0,29.87,SSW,210,9.0,-999.0,73,-99.99,,,-99.99,,2013-05-22 17:33:00,
2013-05-22 13:42:00,79.0,70.0,29.86,South,180,8.0,-999.0,73,-99.99,,,-99.99,,2013-05-22 17:42:00,
2013-05-22 13:53:00,82.0,72.0,29.85,SSW,200,14.0,18.0,69,-99.99,,,-99.99,,2013-05-22 17:53:00,
2013-05-22 14:02:00,81.0,70.0,29.85,South,190,17.0,-999.0,69,-99.99,,,-99.99,,2013-05-22 18:02:00,
2013-05-22 14:14:00,81.0,72.0,29.84,South,190,14.0,-999.0,74,-99.99,,,-99.99,,2013-05-22 18:14:00,
2013-05-22 14:22:00,81.0,72.0,29.85,SSW,200,13.0,18.0,74,-99.99,,,-99.99,,2013-05-22 18:22:00,
2013-05-22 14:34:00,79.0,72.0,29.85,South,180,9.0,-999.0,78,-99.99,,,-99.99,,2013-05-22 18:34:00,
2013-05-22 14:42:00,79.0,72.0,29.85,South,190,8.0,-999.0,78,-99.99,,,-99.99,,2013-05-22 18:42:00,
2013-05-22 14:52:00,79.0,72.0,29.86,SSW,210,6.0,-999.0,78,-99.99,,,-99.99,,2013-05-22 18:52:00,
2013-05-22 15:02:00,79.0,72.0,29.84,SSE,160,9.0,-999.0,78,-99.99,,,-99.99,,2013-05-22 19:02:00,
2013-05-22 15:11:00,77.0,72.0,29.83,South,170,7.0,-999.0,83,-99.99,,,-99.99,,2013-05-22 19:11:00,
2013-05-22 15:21:00,77.0,72.0,29.84,North,0,0.0,-999.0,83,-99.99,,,-99.99,,2013-05-22 19:21:00,
2013-05-22 15:32:00,77.0,73.0,29.85,North,0,0.0,-999.0,88,-99.99,,,-99.99,,2013-05-22 19:32:00,
2013-05-22 15:42:00,77.0,73.0,29.84,North,0,0.0,-999.0,88,-99.99,,,-99.99,,2013-05-22 19:42:00,
2013-05-22 15:52:00,77.0,73.0,29.85,North,0,0.0,-999.0,88,-99.99,,,-99.99,,2013-05-22 19:52:00,
2013-05-22 16:02:00,79.0,73.0,29.85,North,0,0.0,-999.0,83,-99.99,,,-99.99,,2013-05-22 20:02:00,
2013-05-22 16:11:00,79.0,73.0,29.85,North,0,0.0,-999.0,83,-99.99,,,-99.99,,2013-05-22 20:11:00,
2013-05-22 16:22:00,79.0,73.0,29.84,South,190,9.0,-999.0,83,-99.99,,,-99.99,,2013-05-22 20:22:00,
2013-05-22 16:32:00,79.0,73.0,29.83,South,190,7.0,-999.0,83,-99.99,,,-99.99,,2013-05-22 20:32:00,
2013-05-22 16:42:00,79.0,73.0,29.83,South,190,10.0,-999.0,83,-99.99,,,-99.99,,2013-05-22 20:42:00,
2013-05-22 16:51:00,81.0,72.0,29.82,SSW,200,8.0,-999.0,74,-99.99,,,-99.99,,2013-05-22 20:51:00,
2013-05-22 17:01:00,81.0,73.0,29.82,South,180,9.0,-999.0,78,-99.99,,,-99.99,,2013-05-22 21:01:00,
2013-05-22 17:11:00,81.0,72.0,29.82,South,180,10.0,16.0,74,-99.99,,,-99.99,,2013-05-22 21:11:00,
2013-05-22 17:21:00,82.0,72.0,29.82,SSW,200,9.0,-999.0,69,-99.99,,,-99.99,,2013-05-22 21:21:00,
2013-05-22 17:32:00,82.0,72.0,29.81,SSW,200,8.0,-999.0,69,-99.99,,,-99.99,,2013-05-22 21:32:00,
2013-05-22 17:42:00,82.0,72.0,29.81,SSW,210,10.0,-999.0,69,-99.99,,,-99.99,,2013-05-22 21:42:00,
2013-05-22 17:52:00,82.0,72.0,29.80,SSW,200,10.0,-999.0,69,-99.99,,,-99.99,,2013-05-22 21:52:00,
2013-05-22 18:03:00,82.0,72.0,29.80,SSW,200,12.0,-999.0,69,-99.99,,,-99.99,,2013-05-22 22:03:00,
2013-05-22 18:13:00,82.0,72.0,29.80,South,190,10.0,-999.0,69,-99.99,,,-99.99,,2013-05-22 22:13:00,
2013-05-22 18:22:00,82.0,72.0,29.80,South,180,12.0,-999.0,69,-99.99,,,-99.99,,2013-05-22 22:22:00,
2013-05-22 18:33:00,82.0,72.0,29.80,SSW,200,12.0,-999.0,69,-99.99,,,-99.99,,2013-05-22 22:33:00,
2013-05-22 18:42:00,82.0,72.0,29.81,SSW,200,13.0,-999.0,69,-99.99,,,-99.99,,2013-05-22 22:42:00,
2013-05-22 18:52:00,82.0,72.0,29.81,SSW,200,8.0,-999.0,69,-99.99,,,-99.99,,2013-05-22 22:52:00,
2013-05-22 19:02:00,82.0,72.0,29.81,South,180,8.0,-999.0,69,-99.99,,,-99.99,,2013-05-22 23:02:00,
2013-05-22 19:12:00,82.0,72.0,29.81,South,190,7.0,-999.0,69,-99.99,,,-99.99,,2013-05-22 23:12:00,
2013-05-22 19:21:00,81.0,72.0,29.81,South,180,6.0,-999.0,74,-99.99,,,-99.99,,2013-05-22 23:21:00,
2013-05-22 19:32:00,81.0,72.0,29.81,South,170,6.0,-999.0,74,-99.99,,,-99.99,,2013-05-22 23:32:00,
2013-05-22 19:42:00,81.0,73.0,29.81,SSE,160,5.0,-999.0,78,-99.99,,,-99.99,,2013-05-22 23:42:00,
2013-05-22 19:52:00,81.0,73.0,29.81,South,170,3.0,-999.0,78,-99.99,,,-99.99,,2013-05-22 23:52:00,
2013-05-22 20:01:00,79.0,73.0,29.81,SSE,160,3.0,-999.0,83,-99.99,,,-99.99,,2013-05-23 00:01:00,
2013-05-22 20:11:00,79.0,73.0,29.81,South,180,5.0,-999.0,83,-99.99,,,-99.99,,2013-05-23 00:11:00,
2013-05-22 20:22:00,79.0,73.0,29.81,North,0,0.0,-999.0,83,-99.99,,,-99.99,,2013-05-23 00:22:00,
2013-05-22 20:32:00,77.0,73.0,29.81,South,190,5.0,-999.0,88,-99.99,,,-99.99,,2013-05-23 00:32:00,
2013-05-22 20:42:00,77.0,72.0,29.81,North,0,0.0,-999.0,83,-99.99,,,-99.99,,2013-05-23 00:42:00,
2013-05-22 20:51:00,75.0,72.0,29.81,North,0,0.0,-999.0,88,-99.99,,,-99.99,,2013-05-23 00:51:00,
2013-05-22 21:01:00,75.0,72.0,29.81,North,0,0.0,-999.0,88,-99.99,,,-99.99,,2013-05-23 01:01:00,
2013-05-22 21:11:00,75.0,72.0,29.82,South,180,3.0,-999.0,88,-99.99,,,-99.99,,2013-05-23 01:11:00,
2013-05-22 21:22:00,75.0,72.0,29.82,South,190,6.0,-999.0,88,-99.99,,,-99.99,,2013-05-23 01:22:00,
2013-05-22 21:32:00,79.0,72.0,29.82,SSW,200,6.0,-999.0,78,-99.99,,,-99.99,,2013-05-23 01:32:00,
2013-05-22 21:42:00,79.0,72.0,29.83,South,190,6.0,-999.0,78,-99.99,,,-99.99,,2013-05-23 01:42:00,
2013-05-22 21:52:00,79.0,72.0,29.83,SSW,200,6.0,-999.0,78,-99.99,,,-99.99,,2013-05-23 01:52:00,
2013-05-22 22:02:00,77.0,72.0,29.83,South,190,6.0,-999.0,83,-99.99,,,-99.99,,2013-05-23 02:02:00,
2013-05-22 22:11:00,77.0,72.0,29.83,SSW,200,6.0,-999.0,83,-99.99,,,-99.99,,2013-05-23 02:11:00,
2013-05-22 22:21:00,77.0,72.0,29.82,South,180,8.0,-999.0,83,-99.99,,,-99.99,,2013-05-23 02:21:00,
2013-05-22 22:32:00,77.0,72.0,29.82,South,180,7.0,-999.0,83,-99.99,,,-99.99,,2013-05-23 02:32:00,
2013-05-22 22:42:00,77.0,72.0,29.82,South,180,7.0,-999.0,83,-99.99,,,-99.99,,2013-05-23 02:42:00,
2013-05-22 22:51:00,77.0,72.0,29.82,South,180,7.0,-999.0,83,-99.99,,,-99.99,,2013-05-23 02:51:00,
2013-05-22 23:02:00,77.0,72.0,29.83,South,180,10.0,-999.0,83,-99.99,,,-99.99,,2013-05-23 03:02:00,
2013-05-22 23:11:00,77.0,72.0,29.83,South,180,7.0,-999.0,83,-99.99,,,-99.99,,2013-05-23 03:11:00,
2013-05-22 23:21:00,75.0,72.0,29.82,South,170,6.0,-999.0,88,-99.99,,,-99.99,,2013-05-23 03:21:00,
2013-05-22 23:33:00,75.0,72.0,29.82,South,180,7.0,-999.0,88,-99.99,,,-99.99,,2013-05-23 03:33:00,
2013-05-22 23:43:00,75.0,72.0,29.82,South,180,7.0,-999.0,88,-99.99,,,-99.99,,2013-05-23 03:43:00,
2013-05-22 23:53:00,77.0,72.0,29.81,South,180,9.0,-999.0,83,-99.99,,,-99.99,,2013-05-23 03:53:00,